Weather History for KFEP - May, 2013

Change the Weather History Date:

Monday, May 27, 2013

  Actual Average Record
Temperature  
Mean Temperature 58 °F -  
Max Temperature 62 °F 74 °F 95 °F (1985)
Min Temperature 54 °F 50 °F 34 °F (1992)
Degree Days  
Heating Degree Days 8    
Growing Degree Days 8 (Base 50)    
Moisture  
Dew Point 56 °F    
Average Humidity 93    
Maximum Humidity 95    
Minimum Humidity 91    
Precipitation  
Precipitation 0.02 in - - ()
Sea Level Pressure  
Sea Level Pressure 29.98 in    
Wind  
Wind Speed 11 mph (ENE)    
Max Wind Speed 18 mph    
Max Gust Speed 18 mph    
Visibility 2 miles    
Events Fog , Rain    
Averages and records for this station are not official NWS values.
T = Trace of Precipitation, MM = Missing Value Source: NWS Daily Summary

Daily Weather History Graph

Daily Weather History Graph

Search for Another Location

Airport or City:

Trip Planner

Search our weather history database for the weather conditions in past years. The results will help you decide how hot, cold, wet, or windy it might be!

Date:

Astronomy

May. 27, 2013 Rise Set
Actual Time 5:27 AM CDT 8:24 PM CDT
Civil Twilight 4:53 AM CDT 8:57 PM CDT
Nautical Twilight 4:11 AM CDT 9:40 PM CDT
Astronomical Twilight 3:21 AM CDT 10:30 PM CDT
Moon 11:02 PM CDT (5/27) 8:05 AM CDT (5/27)
Length of Visible Light 16h 04m
Length of Day
14h 57m
Waning Gibbous, 91% of the Moon is Illuminated
May 27
Waning Gibbous
May 31
Last Quarter
Jun 8
New
Jun 16
First Quarter
Jun 23
Full

Hourly Weather History & Observations

Time (CDT) Temp. Dew Point Humidity Pressure Visibility Wind Dir Wind Speed Gust Speed Precip Events Conditions
12:15 AM 54.0 °F 52.0 °F 93% 30.13 in 3.0 mi ENE 11.5 mph - 0.01 in Rain Light Rain
12:35 AM 54.0 °F 52.0 °F 93% 30.11 in 3.0 mi ENE 15.0 mph 18.4 mph 0.01 in   Drizzle
12:55 AM 54.0 °F 52.0 °F 93% 30.11 in 3.0 mi ENE 11.5 mph - 0.02 in   Drizzle
1:15 AM 54.0 °F 52.0 °F 93% 30.12 in 4.0 mi ENE 11.5 mph - N/A   Overcast
1:35 AM 54.0 °F 52.0 °F 93% 30.11 in 4.0 mi ENE 12.7 mph - N/A   Overcast
1:55 AM 54.0 °F 52.0 °F 93% 30.10 in 5.0 mi ENE 11.5 mph - N/A   Overcast
2:15 AM 54.0 °F 51.8 °F 92% 30.09 in 5.0 mi ENE 12.7 mph - N/A   Overcast
2:35 AM 54.0 °F 51.8 °F 92% 30.07 in 5.0 mi ENE 13.8 mph - N/A   Overcast
2:55 AM 54.0 °F 51.8 °F 92% 30.07 in 7.0 mi East 11.5 mph - N/A   Overcast
3:15 AM 54.0 °F 51.8 °F 92% 30.07 in 5.0 mi ENE 9.2 mph - N/A   Overcast
3:35 AM 54.0 °F 51.8 °F 92% 30.05 in 5.0 mi East 9.2 mph - N/A   Overcast
3:55 AM 54.0 °F 51.8 °F 92% 30.05 in 4.0 mi East 8.1 mph - N/A   Overcast
4:15 AM 54.0 °F 51.8 °F 92% 30.05 in 4.0 mi East 8.1 mph - N/A   Overcast
4:35 AM 54.0 °F 52.0 °F 93% 30.05 in 3.0 mi East 9.2 mph - N/A   Overcast
4:55 AM 54.0 °F 52.0 °F 93% 30.04 in 2.5 mi East 6.9 mph - N/A   Overcast
5:15 AM 54.0 °F 52.0 °F 93% 30.03 in 2.0 mi ENE 8.1 mph - N/A   Overcast
5:35 AM 54.5 °F 52.5 °F 93% 30.03 in 1.8 mi East 8.1 mph - N/A   Overcast
5:55 AM 55.4 °F 53.2 °F 92% 30.04 in 1.5 mi ENE 8.1 mph - N/A   Overcast
6:15 AM 55.6 °F 53.8 °F 94% 30.04 in 1.0 mi ENE 6.9 mph - N/A   Overcast
6:35 AM 56.5 °F 54.7 °F 94% 30.03 in 0.8 mi ENE 8.1 mph - N/A   Overcast
6:55 AM 56.5 °F 54.7 °F 94% 30.04 in 0.8 mi ENE 10.4 mph - N/A   Overcast
7:15 AM 56.5 °F 54.7 °F 94% 30.04 in 0.8 mi East 10.4 mph - N/A   Overcast
7:35 AM 56.5 °F 54.7 °F 94% 30.03 in 0.8 mi East 10.4 mph - N/A   Overcast
7:55 AM 59.0 °F 57.2 °F 94% 30.01 in 0.8 mi East 12.7 mph - N/A   Overcast
8:15 AM 59.0 °F 57.2 °F 94% 30.02 in 0.8 mi East 10.4 mph - N/A   Overcast
8:35 AM 59.0 °F 57.2 °F 94% 30.03 in 0.8 mi East 9.2 mph - N/A   Overcast
8:55 AM 59.0 °F 57.2 °F 94% 30.04 in 1.0 mi East 6.9 mph - N/A   Overcast
9:15 AM 59.0 °F 57.2 °F 94% 30.03 in 1.2 mi East 6.9 mph - N/A   Overcast
9:35 AM 59.0 °F 57.2 °F 94% 30.01 in 1.5 mi East 6.9 mph - N/A   Overcast
9:55 AM 59.2 °F 57.2 °F 93% 29.99 in 2.5 mi East 9.2 mph - N/A   Overcast
10:15 AM 60.3 °F 58.1 °F 93% 29.97 in 3.0 mi East 8.1 mph - N/A   Overcast
10:35 AM 61.7 °F 59.2 °F 91% 29.97 in 4.0 mi East 10.4 mph - N/A   Overcast
10:55 AM 61.7 °F 59.2 °F 91% 29.97 in 4.0 mi East 15.0 mph - N/A   Overcast
11:15 AM 61.7 °F 59.2 °F 91% 29.99 in 3.0 mi East 10.4 mph - N/A   Overcast
11:35 AM 61.7 °F 59.2 °F 91% 29.98 in 3.0 mi East 9.2 mph - N/A   Overcast
11:55 AM 61.7 °F 59.0 °F 91% 29.97 in 3.0 mi East 12.7 mph - N/A   Overcast
12:15 PM 61.7 °F 59.0 °F 91% 29.97 in 3.0 mi East 11.5 mph - N/A   Overcast
12:35 PM 61.7 °F 59.0 °F 91% 29.96 in 3.0 mi East 16.1 mph - N/A   Overcast
12:55 PM 61.9 °F 59.2 °F 91% 29.97 in 3.0 mi East 13.8 mph - N/A   Overcast
1:15 PM 61.7 °F 59.0 °F 91% 29.98 in 3.0 mi East 13.8 mph - N/A   Overcast
1:35 PM 61.7 °F 59.0 °F 91% 29.97 in 3.0 mi East 12.7 mph - N/A   Overcast
1:55 PM 61.7 °F 59.0 °F 91% 29.96 in 3.0 mi East 10.4 mph - N/A   Overcast
2:15 PM 61.7 °F 59.0 °F 91% 29.95 in 3.0 mi East 12.7 mph - N/A   Overcast
2:35 PM 61.7 °F 59.0 °F 91% 29.94 in 2.5 mi East 13.8 mph 17.3 mph N/A   Overcast
2:55 PM 61.7 °F 59.0 °F 91% 29.94 in 2.0 mi ENE 12.7 mph 17.3 mph N/A   Overcast
3:15 PM 59.9 °F 57.9 °F 93% 29.95 in 1.2 mi ENE 10.4 mph - N/A   Overcast
3:35 PM 59.9 °F 57.9 °F 93% 29.94 in 1.0 mi ENE 11.5 mph - N/A   Overcast
3:55 PM 59.0 °F 57.2 °F 94% 29.92 in 0.8 mi ENE 12.7 mph 17.3 mph N/A   Overcast
4:15 PM 59.0 °F 57.2 °F 94% 29.90 in 0.8 mi ENE 18.4 mph - N/A Rain Light Rain
4:35 PM 59.0 °F 57.2 °F 94% 29.90 in 1.0 mi ENE 13.8 mph - N/A   Overcast
4:55 PM 59.0 °F 57.2 °F 94% 29.89 in 1.2 mi ENE 11.5 mph - N/A   Overcast
5:15 PM 59.0 °F 57.2 °F 94% 29.90 in 1.2 mi ENE 12.7 mph 16.1 mph N/A   Overcast
5:35 PM 59.0 °F 57.2 °F 94% 29.89 in 1.2 mi NE 11.5 mph 18.4 mph N/A   Overcast
5:55 PM 59.0 °F 57.2 °F 94% 29.88 in 1.5 mi ENE 12.7 mph 17.3 mph N/A   Overcast
6:15 PM 59.0 °F 57.2 °F 94% 29.89 in 1.5 mi ENE 10.4 mph - N/A   Overcast
6:35 PM 59.0 °F 56.8 °F 93% 29.88 in 1.8 mi NE 6.9 mph 17.3 mph N/A   Overcast
6:55 PM 59.0 °F 56.7 °F 92% 29.87 in 2.0 mi NE 10.4 mph - N/A   Overcast
7:15 PM 59.0 °F 56.7 °F 92% 29.87 in 2.5 mi ENE 10.4 mph - N/A   Overcast
7:35 PM 59.0 °F 56.7 °F 92% 29.88 in 2.5 mi ENE 11.5 mph - N/A   Overcast
7:55 PM 59.0 °F 56.7 °F 92% 29.88 in 2.5 mi NE 9.2 mph - N/A   Overcast
8:15 PM 59.0 °F 56.7 °F 92% 29.89 in 2.5 mi NE 6.9 mph - N/A   Overcast
8:35 PM 59.0 °F 56.8 °F 93% 29.88 in 3.0 mi NE 5.8 mph - N/A   Overcast
8:55 PM 59.0 °F 56.8 °F 93% 29.87 in 4.0 mi NE 8.1 mph - N/A   Overcast
9:15 PM 59.0 °F 56.8 °F 93% 29.88 in 4.0 mi ENE 9.2 mph - N/A   Overcast
9:35 PM 59.0 °F 56.7 °F 92% 29.89 in 4.0 mi ENE 6.9 mph - N/A   Overcast
9:55 PM 59.0 °F 56.8 °F 93% 29.89 in 3.0 mi NE 6.9 mph - N/A   Overcast
10:15 PM 58.8 °F 57.0 °F 94% 29.90 in 2.5 mi NNE 6.9 mph - N/A   Overcast
10:35 PM 56.5 °F 54.7 °F 94% 29.90 in 1.8 mi NE 8.1 mph - N/A   Overcast
10:55 PM 56.5 °F 54.7 °F 94% 29.91 in 1.0 mi ENE 6.9 mph - N/A   Overcast
11:15 PM 56.5 °F 54.9 °F 94% 29.89 in 0.8 mi NE 9.2 mph - N/A   Overcast
11:35 PM 56.5 °F 54.9 °F 94% 29.89 in 0.5 mi ENE 9.2 mph - N/A Fog Fog
11:55 PM 56.3 °F 54.9 °F 95% 29.87 in 0.8 mi ENE 12.7 mph - N/A Rain Light Rain